sat.trackr.live / text

‹ back to catalog

STARLINK-34608

NORAD 64810 · 2025-150W

PAYLOAD ACTIVE UNKNOWN

§ Identity

Operator
Country
US
Launch date
2025-07-16
Launch site
AFWTR
Launch vehicle
Mass (kg)
RCS (m²)

Purposes: comms

External: N2YO · Heavens-Above · Gunter

§ Orbital elements

Epoch: 2026-09-20T14:07:36.924384Z

Period
96.11 min
Inclination
70.0034°
Eccentricity
0.0002926
Mean motion
14.98328374 rev/d
Perigee alt
570.0 km
Apogee alt
574.1 km
Semi-major
6,950.2 km
B*
5.8315e-4
RAAN
2.9338°
Arg perigee
261.5896°
Mean anomaly
98.4932°
Rev number
6,571

§ Raw data

STARLINK-346081 64810U 25150W   26263.58862181  .00006872  00000+0  58315-3 0  99972 64810  70.0034   2.9338 0002926 261.5896  98.4932 14.98328374 65719

JSON: /api/v1/satellites/64810 · /tle

For live sub-satellite position, see the globe view (requires WebGL).

§ Visibility from observer

Set your observer location to see the next 7 days of passes ≥ 10°. The values pass through the URL so the page stays shareable.

No JS? Fill the form by hand. The geolocation button needs JavaScript.